Time,TemperatureF,DewpointF,PressureIn,WindDirection,WindDirectionDegrees,WindSpeedMPH,WindSpeedGustMPH,Humidity,HourlyPrecipIn,Conditions,Clouds,dailyrainin,SoftwareType,DateUTC
2013-10-09 00:03:00,58.6,6.1,30.09,North,0,0.0,0.0,12,0.00,CLR,OVC,0.00,WeatherDisplay:10.37,2013-10-09 05:03:00,
2013-10-09 00:08:00,58.5,9.4,30.09,North,0,0.0,0.0,14,0.00,CLR,OVC,0.00,WeatherDisplay:10.37,2013-10-09 05:08:00,
2013-10-09 00:13:00,58.1,9.1,30.09,North,0,0.0,0.0,14,0.00,CLR,OVC,0.00,WeatherDisplay:10.37,2013-10-09 05:13:00,
2013-10-09 00:18:00,57.7,8.8,30.09,North,0,0.0,0.0,14,0.00,CLR,OVC,0.00,WeatherDisplay:10.37,2013-10-09 05:18:00,
2013-10-09 00:23:00,57.4,8.5,30.09,North,0,0.0,0.0,14,0.00,CLR,OVC,0.00,WeatherDisplay:10.37,2013-10-09 05:23:00,
2013-10-09 00:28:00,57.2,8.3,30.09,North,0,0.0,0.0,14,0.00,CLR,OVC,0.00,WeatherDisplay:10.37,2013-10-09 05:28:00,
2013-10-09 00:33:00,56.8,9.6,30.09,North,0,0.0,0.0,15,0.00,CLR,OVC,0.00,WeatherDisplay:10.37,2013-10-09 05:33:00,
2013-10-09 00:38:00,56.7,12.3,30.09,North,0,0.0,0.0,17,0.00,CLR,OVC,0.00,WeatherDisplay:10.37,2013-10-09 05:38:00,
2013-10-09 00:43:00,56.5,12.1,30.09,North,0,0.0,0.0,17,0.00,CLR,OVC,0.00,WeatherDisplay:10.37,2013-10-09 05:43:00,
2013-10-09 00:48:00,56.3,12.0,30.09,North,0,0.0,0.0,17,0.00,CLR,OVC,0.00,WeatherDisplay:10.37,2013-10-09 05:48:00,
2013-10-09 00:53:00,55.9,11.7,30.09,North,0,0.0,0.0,17,0.00,CLR,OVC,0.00,WeatherDisplay:10.37,2013-10-09 05:53:00,
2013-10-09 00:58:00,55.9,15.4,30.09,North,0,0.0,0.0,20,0.00,CLR,OVC,0.00,WeatherDisplay:10.37,2013-10-09 05:58:00,
2013-10-09 01:03:00,55.8,15.2,30.09,North,0,0.0,0.0,20,0.00,CLR,OVC,0.00,WeatherDisplay:10.37,2013-10-09 06:03:00,
2013-10-09 01:08:00,55.8,15.2,30.09,North,0,0.0,0.0,20,0.00,CLR,OVC,0.00,WeatherDisplay:10.37,2013-10-09 06:08:00,
2013-10-09 01:13:00,55.8,15.2,30.09,North,0,0.0,0.0,20,0.00,CLR,OVC,0.00,WeatherDisplay:10.37,2013-10-09 06:13:00,
2013-10-09 01:18:00,55.8,17.4,30.09,North,0,0.0,0.0,22,0.00,CLR,OVC,0.00,WeatherDisplay:10.37,2013-10-09 06:18:00,
2013-10-09 01:23:00,55.6,17.3,30.09,North,0,0.0,0.0,22,0.00,CLR,OVC,0.00,WeatherDisplay:10.37,2013-10-09 06:23:00,
2013-10-09 01:28:00,55.6,17.3,30.09,North,0,0.0,0.0,22,0.00,CLR,OVC,0.00,WeatherDisplay:10.37,2013-10-09 06:28:00,
2013-10-09 01:33:00,55.4,17.1,30.09,North,0,0.0,0.0,22,0.00,CLR,OVC,0.00,WeatherDisplay:10.37,2013-10-09 06:33:00,
2013-10-09 01:38:00,55.4,20.1,30.09,North,0,0.0,0.0,25,0.00,CLR,OVC,0.00,WeatherDisplay:10.37,2013-10-09 06:38:00,
2013-10-09 01:43:00,55.4,20.1,30.09,North,0,0.0,0.0,25,0.00,CLR,OVC,0.00,WeatherDisplay:10.37,2013-10-09 06:43:00,
2013-10-09 01:48:00,55.2,20.0,30.09,North,0,0.0,0.0,25,0.00,CLR,OVC,0.00,WeatherDisplay:10.37,2013-10-09 06:48:00,
2013-10-09 01:53:00,55.2,20.9,30.09,North,0,0.0,0.0,26,0.00,CLR,OVC,0.00,WeatherDisplay:10.37,2013-10-09 06:53:00,
2013-10-09 01:58:00,55.0,20.7,30.09,North,0,0.0,0.0,26,0.00,CLR,OVC,0.00,WeatherDisplay:10.37,2013-10-09 06:58:00,
2013-10-09 02:03:00,55.0,20.7,30.09,North,0,0.0,0.0,26,0.00,CLR,OVC,0.00,WeatherDisplay:10.37,2013-10-09 07:03:00,
2013-10-09 02:08:00,54.9,20.6,30.09,North,0,0.0,0.0,26,0.00,CLR,OVC,0.00,WeatherDisplay:10.37,2013-10-09 07:08:00,
2013-10-09 02:13:00,54.9,20.6,30.09,North,0,0.0,0.0,26,0.00,CLR,OVC,0.00,WeatherDisplay:10.37,2013-10-09 07:13:00,
2013-10-09 02:18:00,54.9,20.6,30.09,North,0,0.0,0.0,26,0.00,CLR,OVC,0.00,WeatherDisplay:10.37,2013-10-09 07:18:00,
2013-10-09 02:23:00,54.9,20.6,30.09,North,0,0.0,0.0,26,0.00,CLR,OVC,0.00,WeatherDisplay:10.37,2013-10-09 07:23:00,
2013-10-09 02:28:00,54.9,20.6,30.09,North,0,0.0,0.0,26,0.00,CLR,OVC,0.00,WeatherDisplay:10.37,2013-10-09 07:28:00,
2013-10-09 02:33:00,54.9,20.6,30.09,North,0,0.0,0.0,26,0.00,CLR,OVC,0.00,WeatherDisplay:10.37,2013-10-09 07:33:00,
2013-10-09 02:38:00,54.9,20.6,30.09,North,0,0.0,0.0,26,0.00,CLR,OVC,0.00,WeatherDisplay:10.37,2013-10-09 07:38:00,
2013-10-09 02:43:00,54.7,20.4,30.09,North,0,0.0,0.0,26,0.00,CLR,OVC,0.00,WeatherDisplay:10.37,2013-10-09 07:43:00,
2013-10-09 02:48:00,54.7,20.4,30.09,North,0,0.0,0.0,26,0.00,CLR,OVC,0.00,WeatherDisplay:10.37,2013-10-09 07:48:00,
2013-10-09 02:53:00,54.5,20.3,30.09,North,0,0.0,0.0,26,0.00,CLR,OVC,0.00,WeatherDisplay:10.37,2013-10-09 07:53:00,
2013-10-09 02:58:00,54.5,20.3,30.09,North,0,0.0,0.0,26,0.00,CLR,OVC,0.00,WeatherDisplay:10.37,2013-10-09 07:58:00,
2013-10-09 03:03:00,54.3,20.1,30.09,North,0,0.0,0.0,26,0.00,CLR,OVC,0.00,WeatherDisplay:10.37,2013-10-09 08:03:00,
2013-10-09 03:08:00,54.1,20.8,30.09,North,0,0.0,0.0,27,0.00,CLR,OVC,0.00,WeatherDisplay:10.37,2013-10-09 08:08:00,
2013-10-09 03:13:00,53.8,20.5,30.09,North,0,0.0,0.0,27,0.00,CLR,OVC,0.00,WeatherDisplay:10.37,2013-10-09 08:13:00,
2013-10-09 03:18:00,53.4,20.2,30.09,North,0,0.0,0.0,27,0.00,CLR,OVC,0.00,WeatherDisplay:10.37,2013-10-09 08:18:00,
2013-10-09 03:23:00,53.2,20.9,30.09,North,0,0.0,0.0,28,0.00,CLR,OVC,0.00,WeatherDisplay:10.37,2013-10-09 08:23:00,
2013-10-09 03:28:00,53.1,20.8,30.09,North,0,0.0,0.0,28,0.00,CLR,OVC,0.00,WeatherDisplay:10.37,2013-10-09 08:28:00,
2013-10-09 03:33:00,53.1,20.8,30.09,North,0,0.0,0.0,28,0.00,CLR,OVC,0.00,WeatherDisplay:10.37,2013-10-09 08:33:00,
2013-10-09 03:38:00,53.1,21.6,30.09,North,0,0.0,0.0,29,0.00,CLR,OVC,0.00,WeatherDisplay:10.37,2013-10-09 08:38:00,
2013-10-09 03:43:00,53.1,21.6,30.09,North,0,0.0,0.0,29,0.00,CLR,OVC,0.00,WeatherDisplay:10.37,2013-10-09 08:43:00,
2013-10-09 03:48:00,52.9,21.4,30.09,North,0,0.0,0.0,29,0.00,CLR,OVC,0.00,WeatherDisplay:10.37,2013-10-09 08:48:00,
2013-10-09 03:53:00,52.7,21.3,30.09,North,0,0.0,0.0,29,0.00,CLR,OVC,0.00,WeatherDisplay:10.37,2013-10-09 08:53:00,
2013-10-09 03:58:00,52.7,21.3,30.09,North,0,0.0,0.0,29,0.00,CLR,OVC,0.00,WeatherDisplay:10.37,2013-10-09 08:58:00,
2013-10-09 04:03:00,52.5,21.9,30.09,North,0,0.0,0.0,30,0.00,CLR,OVC,0.00,WeatherDisplay:10.37,2013-10-09 09:03:00,
2013-10-09 04:08:00,52.3,21.8,30.09,North,0,0.0,0.0,30,0.00,CLR,OVC,0.00,WeatherDisplay:10.37,2013-10-09 09:08:00,
2013-10-09 04:13:00,52.2,21.6,30.09,North,0,0.0,0.0,30,0.00,CLR,OVC,0.00,WeatherDisplay:10.37,2013-10-09 09:13:00,
2013-10-09 04:18:00,52.0,22.2,30.09,North,0,0.0,0.0,31,0.00,CLR,OVC,0.00,WeatherDisplay:10.37,2013-10-09 09:18:00,
2013-10-09 04:23:00,51.8,22.1,30.09,North,0,0.0,0.0,31,0.00,CLR,OVC,0.00,WeatherDisplay:10.37,2013-10-09 09:23:00,
2013-10-09 04:28:00,51.6,22.7,30.09,North,0,0.0,0.0,32,0.00,CLR,OVC,0.00,WeatherDisplay:10.37,2013-10-09 09:28:00,
2013-10-09 04:33:00,51.4,22.5,30.12,North,0,0.0,0.0,32,0.00,CLR,OVC,0.00,WeatherDisplay:10.37,2013-10-09 09:33:00,
2013-10-09 04:38:00,51.3,23.1,30.12,North,0,0.0,0.0,33,0.00,CLR,OVC,0.00,WeatherDisplay:10.37,2013-10-09 09:38:00,
2013-10-09 04:43:00,51.1,22.9,30.12,North,0,0.0,0.0,33,0.00,CLR,OVC,0.00,WeatherDisplay:10.37,2013-10-09 09:43:00,
2013-10-09 04:48:00,50.9,23.5,30.12,North,0,0.0,0.0,34,0.00,CLR,OVC,0.00,WeatherDisplay:10.37,2013-10-09 09:48:00,
2013-10-09 04:53:00,50.7,23.3,30.12,North,0,0.0,0.0,34,0.00,CLR,OVC,0.00,WeatherDisplay:10.37,2013-10-09 09:53:00,
2013-10-09 04:58:00,50.5,23.9,30.12,North,0,0.0,0.0,35,0.00,CLR,OVC,0.00,WeatherDisplay:10.37,2013-10-09 09:58:00,
2013-10-09 05:03:00,50.5,24.5,30.12,North,0,0.0,0.0,36,0.00,CLR,OVC,0.00,WeatherDisplay:10.37,2013-10-09 10:03:00,
2013-10-09 05:08:00,50.5,24.5,30.12,North,0,0.0,0.0,36,0.00,CLR,OVC,0.00,WeatherDisplay:10.37,2013-10-09 10:08:00,
2013-10-09 05:13:00,50.5,24.5,30.12,North,0,0.0,0.0,36,0.00,CLR,OVC,0.00,WeatherDisplay:10.37,2013-10-09 10:13:00,
2013-10-09 05:18:00,50.5,24.5,30.12,North,0,0.0,0.0,36,0.00,CLR,OVC,0.00,WeatherDisplay:10.37,2013-10-09 10:18:00,
2013-10-09 05:23:00,50.5,24.5,30.12,North,0,0.0,0.0,36,0.00,CLR,OVC,0.00,WeatherDisplay:10.37,2013-10-09 10:23:00,
2013-10-09 05:28:00,50.7,25.4,30.12,North,0,0.0,0.0,37,0.00,CLR,OVC,0.00,WeatherDisplay:10.37,2013-10-09 10:28:00,
2013-10-09 05:33:00,50.7,25.4,30.12,North,0,0.0,0.0,37,0.00,CLR,OVC,0.00,WeatherDisplay:10.37,2013-10-09 10:33:00,
2013-10-09 05:38:00,50.7,25.4,30.12,North,0,0.0,0.0,37,0.00,CLR,OVC,0.00,WeatherDisplay:10.37,2013-10-09 10:38:00,
2013-10-09 05:43:00,50.7,25.4,30.12,North,0,0.0,0.0,37,0.00,CLR,OVC,0.00,WeatherDisplay:10.37,2013-10-09 10:43:00,
2013-10-09 05:48:00,50.7,25.4,30.12,North,0,0.0,0.0,37,0.00,CLR,OVC,0.00,WeatherDisplay:10.37,2013-10-09 10:48:00,
2013-10-09 05:53:00,50.7,25.4,30.12,North,0,0.0,0.0,37,0.00,CLR,OVC,0.00,WeatherDisplay:10.37,2013-10-09 10:53:00,
2013-10-09 05:58:00,50.5,25.2,30.12,North,0,0.0,0.0,37,0.00,CLR,OVC,0.00,WeatherDisplay:10.37,2013-10-09 10:58:00,
2013-10-09 06:03:00,50.5,25.2,30.12,North,0,0.0,0.0,37,0.00,CLR,OVC,0.00,WeatherDisplay:10.37,2013-10-09 11:03:00,
2013-10-09 06:08:00,50.4,25.0,30.12,North,0,0.0,0.0,37,0.00,CLR,OVC,0.00,WeatherDisplay:10.37,2013-10-09 11:08:00,
2013-10-09 06:13:00,50.2,24.9,30.12,North,0,0.0,0.0,37,0.00,CLR,OVC,0.00,WeatherDisplay:10.37,2013-10-09 11:13:00,
2013-10-09 06:18:00,50.2,24.9,30.12,North,0,0.0,0.0,37,0.00,CLR,OVC,0.00,WeatherDisplay:10.37,2013-10-09 11:18:00,
2013-10-09 06:23:00,50.2,24.9,30.12,North,0,0.0,0.0,37,0.00,CLR,OVC,0.00,WeatherDisplay:10.37,2013-10-09 11:23:00,
2013-10-09 06:28:00,50.0,24.7,30.12,North,0,0.0,0.0,37,0.00,CLR,OVC,0.00,WeatherDisplay:10.37,2013-10-09 11:28:00,
2013-10-09 06:33:00,49.8,25.2,30.12,North,0,0.0,0.0,38,0.00,CLR,OVC,0.00,WeatherDisplay:10.37,2013-10-09 11:33:00,
2013-10-09 06:38:00,49.8,25.2,30.12,North,0,0.0,0.0,38,0.00,CLR,OVC,0.00,WeatherDisplay:10.37,2013-10-09 11:38:00,
2013-10-09 06:43:00,49.6,25.0,30.12,North,0,0.0,0.0,38,0.00,CLR,OVC,0.00,WeatherDisplay:10.37,2013-10-09 11:43:00,
2013-10-09 06:48:00,49.5,24.9,30.12,North,0,0.0,0.0,38,0.00,CLR,OVC,0.00,WeatherDisplay:10.37,2013-10-09 11:48:00,
2013-10-09 06:53:00,49.5,24.9,30.12,North,0,0.0,0.0,38,0.00,CLR,OVC,0.00,WeatherDisplay:10.37,2013-10-09 11:53:00,
2013-10-09 06:58:00,49.5,24.9,30.12,North,0,0.0,0.0,38,0.00,CLR,OVC,0.00,WeatherDisplay:10.37,2013-10-09 11:58:00,
2013-10-09 07:03:00,49.3,24.7,30.12,North,0,0.0,0.0,38,0.00,CLR,OVC,0.00,WeatherDisplay:10.37,2013-10-09 12:03:00,
2013-10-09 07:07:00,49.3,24.7,30.12,North,0,0.0,0.0,38,0.00,CLR,OVC,0.00,WeatherDisplay:10.37,2013-10-09 12:07:00,
2013-10-09 07:12:00,49.1,24.6,30.12,North,0,0.0,0.0,38,0.00,CLR,OVC,0.00,WeatherDisplay:10.37,2013-10-09 12:12:00,
2013-10-09 07:17:00,49.1,24.6,30.12,North,0,0.0,0.0,38,0.00,CLR,OVC,0.00,WeatherDisplay:10.37,2013-10-09 12:17:00,
2013-10-09 07:22:00,49.1,25.2,30.12,North,0,0.0,0.0,39,0.00,CLR,OVC,0.00,WeatherDisplay:10.37,2013-10-09 12:22:00,
2013-10-09 07:27:00,49.1,25.2,30.12,North,0,0.0,0.0,39,0.00,CLR,OVC,0.00,WeatherDisplay:10.37,2013-10-09 12:27:00,
2013-10-09 07:32:00,49.3,25.3,30.15,North,0,0.0,0.0,39,0.00,CLR,OVC,0.00,WeatherDisplay:10.37,2013-10-09 12:32:00,
2013-10-09 07:37:00,49.3,25.3,30.15,North,0,0.0,0.0,39,0.00,CLR,OVC,0.00,WeatherDisplay:10.37,2013-10-09 12:37:00,
2013-10-09 07:42:00,49.5,25.5,30.15,North,0,0.0,0.0,39,0.00,CLR,OVC,0.00,WeatherDisplay:10.37,2013-10-09 12:42:00,
2013-10-09 07:47:00,49.6,25.7,30.12,North,0,0.0,0.0,39,0.00,CLR,OVC,0.00,WeatherDisplay:10.37,2013-10-09 12:47:00,
2013-10-09 07:52:00,50.0,26.0,30.12,North,0,0.0,0.0,39,0.00,CLR,OVC,0.00,WeatherDisplay:10.37,2013-10-09 12:52:00,
2013-10-09 07:57:00,50.2,26.1,30.12,North,0,0.0,0.0,39,0.00,CLR,OVC,0.00,WeatherDisplay:10.37,2013-10-09 12:57:00,
2013-10-09 08:02:00,50.5,26.5,30.15,North,0,0.0,0.0,39,0.00,CLR,OVC,0.00,WeatherDisplay:10.37,2013-10-09 13:02:00,
2013-10-09 08:07:00,51.1,27.6,30.15,North,0,0.0,0.0,40,0.00,CLR,OVC,0.00,WeatherDisplay:10.37,2013-10-09 13:07:00,
2013-10-09 08:12:00,51.6,28.1,30.15,North,0,0.0,0.0,40,0.00,CLR,OVC,0.00,WeatherDisplay:10.37,2013-10-09 13:12:00,
2013-10-09 08:17:00,52.2,27.9,30.15,North,0,0.0,0.0,39,0.00,CLR,OVC,0.00,WeatherDisplay:10.37,2013-10-09 13:17:00,
2013-10-09 08:22:00,52.9,28.6,30.15,North,0,0.0,0.0,39,0.00,CLR,OVC,0.00,WeatherDisplay:10.37,2013-10-09 13:22:00,
2013-10-09 08:27:00,53.8,28.7,30.15,North,0,0.0,0.0,38,0.00,CLR,OVC,0.00,WeatherDisplay:10.37,2013-10-09 13:27:00,
2013-10-09 08:32:00,54.5,29.4,30.15,North,0,0.0,0.0,38,0.00,CLR,OVC,0.00,WeatherDisplay:10.37,2013-10-09 13:32:00,
2013-10-09 08:37:00,55.2,29.4,30.15,North,0,0.0,0.0,37,0.00,CLR,OVC,0.00,WeatherDisplay:10.37,2013-10-09 13:37:00,
2013-10-09 08:42:00,55.6,29.0,30.15,North,0,0.0,0.0,36,0.00,CLR,OVC,0.00,WeatherDisplay:10.37,2013-10-09 13:42:00,
2013-10-09 08:47:00,55.9,28.7,30.15,North,0,0.0,0.0,35,0.00,CLR,OVC,0.00,WeatherDisplay:10.37,2013-10-09 13:47:00,
2013-10-09 08:52:00,56.1,28.8,30.15,North,0,0.0,0.0,35,0.00,CLR,OVC,0.00,WeatherDisplay:10.37,2013-10-09 13:52:00,
2013-10-09 08:57:00,56.3,27.5,30.15,North,0,0.0,0.0,33,0.00,CLR,OVC,0.00,WeatherDisplay:10.37,2013-10-09 13:57:00,
2013-10-09 09:02:00,56.7,26.3,30.12,North,0,0.0,0.0,31,0.00,CLR,OVC,0.00,WeatherDisplay:10.37,2013-10-09 14:02:00,
2013-10-09 09:07:00,56.8,25.7,30.12,North,0,0.0,0.0,30,0.00,CLR,OVC,0.00,WeatherDisplay:10.37,2013-10-09 14:07:00,
2013-10-09 09:12:00,57.0,25.0,30.12,North,0,0.0,0.0,29,0.00,CLR,OVC,0.00,WeatherDisplay:10.37,2013-10-09 14:12:00,
2013-10-09 09:17:00,57.6,24.7,30.15,North,0,0.0,0.0,28,0.00,CLR,OVC,0.00,WeatherDisplay:10.37,2013-10-09 14:17:00,
2013-10-09 09:22:00,58.1,24.3,30.15,North,0,0.0,0.0,27,0.00,CLR,OVC,0.00,WeatherDisplay:10.37,2013-10-09 14:22:00,
2013-10-09 09:27:00,58.6,23.8,30.15,North,0,0.0,0.0,26,0.00,CLR,OVC,0.00,WeatherDisplay:10.37,2013-10-09 14:27:00,
2013-10-09 09:32:00,59.0,23.2,30.15,North,0,0.0,0.0,25,0.00,CLR,OVC,0.00,WeatherDisplay:10.37,2013-10-09 14:32:00,
2013-10-09 09:37:00,59.5,23.6,30.15,North,0,0.0,0.0,25,0.00,CLR,OVC,0.00,WeatherDisplay:10.37,2013-10-09 14:37:00,
2013-10-09 09:42:00,59.9,23.9,30.15,North,0,0.0,0.0,25,0.00,CLR,OVC,0.00,WeatherDisplay:10.37,2013-10-09 14:42:00,
2013-10-09 09:47:00,60.4,23.4,30.12,North,0,0.0,0.0,24,0.00,CLR,OVC,0.00,WeatherDisplay:10.37,2013-10-09 14:47:00,
2013-10-09 09:52:00,60.6,23.6,30.12,North,0,0.0,0.0,24,0.00,CLR,OVC,0.00,WeatherDisplay:10.37,2013-10-09 14:52:00,
2013-10-09 09:57:00,61.2,20.9,30.12,North,0,0.0,0.0,21,0.00,CLR,OVC,0.00,WeatherDisplay:10.37,2013-10-09 14:57:00,
2013-10-09 10:02:00,61.7,21.3,30.12,North,0,0.0,0.0,21,0.00,CLR,OVC,0.00,WeatherDisplay:10.37,2013-10-09 15:02:00,
2013-10-09 10:07:00,62.1,19.3,30.12,North,0,0.0,0.0,19,0.00,CLR,OVC,0.00,WeatherDisplay:10.37,2013-10-09 15:07:00,
2013-10-09 10:12:00,62.6,18.4,30.12,North,0,0.0,0.0,18,0.00,CLR,OVC,0.00,WeatherDisplay:10.37,2013-10-09 15:12:00,
2013-10-09 10:17:00,63.1,16.2,30.12,North,0,0.0,0.0,16,0.00,CLR,OVC,0.00,WeatherDisplay:10.37,2013-10-09 15:17:00,
2013-10-09 10:22:00,63.7,16.6,30.12,North,0,0.0,0.0,16,0.00,CLR,OVC,0.00,WeatherDisplay:10.37,2013-10-09 15:22:00,
2013-10-09 10:27:00,64.2,12.3,30.12,North,0,0.0,0.0,13,0.00,CLR,OVC,0.00,WeatherDisplay:10.37,2013-10-09 15:27:00,
2013-10-09 10:32:00,65.1,13.0,30.15,North,0,0.0,0.0,13,0.00,CLR,OVC,0.00,WeatherDisplay:10.37,2013-10-09 15:32:00,
2013-10-09 10:37:00,66.2,12.0,30.15,North,0,0.0,0.0,12,0.00,CLR,OVC,0.00,WeatherDisplay:10.37,2013-10-09 15:37:00,
2013-10-09 10:42:00,67.1,8.6,30.15,North,0,0.0,0.0,10,0.00,CLR,OVC,0.00,WeatherDisplay:10.37,2013-10-09 15:42:00,
2013-10-09 10:47:00,68.2,9.5,30.15,North,0,0.0,0.0,10,0.00,CLR,OVC,0.00,WeatherDisplay:10.37,2013-10-09 15:47:00,
2013-10-09 10:52:00,69.1,10.1,30.15,North,0,0.0,0.0,10,0.00,CLR,OVC,0.00,WeatherDisplay:10.37,2013-10-09 15:52:00,
2013-10-09 10:57:00,69.4,10.4,30.15,North,0,0.0,0.0,10,0.00,CLR,OVC,0.00,WeatherDisplay:10.37,2013-10-09 15:57:00,
2013-10-09 11:02:00,70.0,8.5,30.12,North,0,0.0,0.0,9,0.00,CLR,OVC,0.00,WeatherDisplay:10.37,2013-10-09 16:02:00,
2013-10-09 11:07:00,70.9,9.2,30.12,North,0,0.0,0.0,9,0.00,CLR,OVC,0.00,WeatherDisplay:10.37,2013-10-09 16:07:00,
2013-10-09 11:12:00,71.4,9.6,30.12,North,0,0.0,0.0,9,0.00,CLR,OVC,0.00,WeatherDisplay:10.37,2013-10-09 16:12:00,
2013-10-09 11:17:00,72.1,10.1,30.12,North,0,0.0,0.0,9,0.00,CLR,OVC,0.00,WeatherDisplay:10.37,2013-10-09 16:17:00,
2013-10-09 11:22:00,72.5,10.4,30.12,North,0,0.0,0.0,9,0.00,CLR,OVC,0.00,WeatherDisplay:10.37,2013-10-09 16:22:00,
2013-10-09 11:27:00,72.9,10.7,30.12,North,0,0.0,0.0,9,0.00,CLR,OVC,0.00,WeatherDisplay:10.37,2013-10-09 16:27:00,
2013-10-09 11:32:00,72.9,10.7,30.12,North,0,0.0,0.0,9,0.00,CLR,OVC,0.00,WeatherDisplay:10.37,2013-10-09 16:32:00,
2013-10-09 11:38:00,73.0,10.8,30.12,North,0,0.0,0.0,9,0.00,CLR,OVC,0.00,WeatherDisplay:10.37,2013-10-09 16:38:00,
2013-10-09 11:43:00,73.0,10.8,30.12,North,0,0.0,0.0,9,0.00,CLR,OVC,0.00,WeatherDisplay:10.37,2013-10-09 16:43:00,
2013-10-09 11:48:00,73.2,10.9,30.12,North,0,0.0,0.0,9,0.00,CLR,OVC,0.00,WeatherDisplay:10.37,2013-10-09 16:48:00,
2013-10-09 11:53:00,73.9,8.8,30.12,North,0,0.0,0.0,8,0.00,CLR,OVC,0.00,WeatherDisplay:10.37,2013-10-09 16:53:00,
2013-10-09 11:58:00,74.1,9.0,30.12,North,0,0.0,0.0,8,0.00,CLR,OVC,0.00,WeatherDisplay:10.37,2013-10-09 16:58:00,
2013-10-09 12:03:00,74.7,9.4,30.12,North,0,0.0,0.0,8,0.00,CLR,OVC,0.00,WeatherDisplay:10.37,2013-10-09 17:03:00,
2013-10-09 12:08:00,75.2,9.8,30.12,North,0,0.0,0.0,8,0.00,CLR,OVC,0.00,WeatherDisplay:10.37,2013-10-09 17:08:00,
2013-10-09 12:13:00,75.9,10.3,30.12,North,0,0.0,0.0,8,0.00,CLR,OVC,0.00,WeatherDisplay:10.37,2013-10-09 17:13:00,
2013-10-09 12:18:00,76.5,10.7,30.12,North,0,0.0,0.0,8,0.00,CLR,OVC,0.00,WeatherDisplay:10.37,2013-10-09 17:18:00,
2013-10-09 12:23:00,77.0,11.1,30.12,North,0,0.0,0.0,8,0.00,CLR,OVC,0.00,WeatherDisplay:10.37,2013-10-09 17:23:00,
2013-10-09 12:28:00,77.5,11.5,30.12,North,0,0.0,0.0,8,0.00,CLR,OVC,0.00,WeatherDisplay:10.37,2013-10-09 17:28:00,
2013-10-09 12:33:00,77.9,11.8,30.12,North,0,0.0,0.0,8,0.00,CLR,OVC,0.00,WeatherDisplay:10.37,2013-10-09 17:33:00,
2013-10-09 12:38:00,78.4,12.2,30.12,North,0,0.0,0.0,8,0.00,CLR,OVC,0.00,WeatherDisplay:10.37,2013-10-09 17:38:00,
2013-10-09 12:43:00,78.6,12.3,30.12,North,0,0.0,0.0,8,0.00,CLR,OVC,0.00,WeatherDisplay:10.37,2013-10-09 17:43:00,
2013-10-09 12:48:00,78.4,12.2,30.12,North,0,0.0,0.0,8,0.00,CLR,OVC,0.00,WeatherDisplay:10.37,2013-10-09 17:48:00,
2013-10-09 12:53:00,78.6,12.3,30.12,North,0,0.0,0.0,8,0.00,CLR,OVC,0.00,WeatherDisplay:10.37,2013-10-09 17:53:00,
2013-10-09 12:58:00,78.6,12.3,30.12,North,0,0.0,0.0,8,0.00,CLR,OVC,0.00,WeatherDisplay:10.37,2013-10-09 17:58:00,
2013-10-09 13:03:00,77.4,11.4,30.09,North,0,0.0,0.0,8,0.00,CLR,OVC,0.00,WeatherDisplay:10.37,2013-10-09 18:03:00,
2013-10-09 13:08:00,77.2,11.3,30.09,North,0,0.0,0.0,8,0.00,CLR,OVC,0.00,WeatherDisplay:10.37,2013-10-09 18:08:00,
2013-10-09 13:13:00,77.0,11.1,30.09,North,0,0.0,0.0,8,0.00,CLR,OVC,0.00,WeatherDisplay:10.37,2013-10-09 18:13:00,
2013-10-09 13:18:00,77.4,11.4,30.09,North,0,0.0,0.0,8,0.00,CLR,OVC,0.00,WeatherDisplay:10.37,2013-10-09 18:18:00,
2013-10-09 13:23:00,77.9,11.8,30.09,North,0,0.0,0.0,8,0.00,CLR,OVC,0.00,WeatherDisplay:10.37,2013-10-09 18:23:00,
2013-10-09 13:28:00,78.8,9.5,30.09,North,0,0.0,0.0,7,0.00,CLR,OVC,0.00,WeatherDisplay:10.37,2013-10-09 18:28:00,
2013-10-09 13:33:00,79.2,9.7,30.09,North,0,0.0,0.0,7,0.00,CLR,OVC,0.00,WeatherDisplay:10.37,2013-10-09 18:33:00,
2013-10-09 13:38:00,79.7,10.1,30.09,North,0,0.0,0.0,7,0.00,CLR,OVC,0.00,WeatherDisplay:10.37,2013-10-09 18:38:00,
2013-10-09 13:43:00,80.1,10.4,30.09,North,0,0.0,0.0,7,0.00,CLR,OVC,0.00,WeatherDisplay:10.37,2013-10-09 18:43:00,
2013-10-09 13:48:00,80.4,10.6,30.09,North,0,0.0,0.0,7,0.00,CLR,OVC,0.00,WeatherDisplay:10.37,2013-10-09 18:48:00,
2013-10-09 13:53:00,81.0,11.0,30.09,North,0,0.0,0.0,7,0.00,CLR,OVC,0.00,WeatherDisplay:10.37,2013-10-09 18:53:00,
2013-10-09 13:58:00,81.1,11.2,30.09,North,0,0.0,0.0,7,0.00,CLR,OVC,0.00,WeatherDisplay:10.37,2013-10-09 18:58:00,
2013-10-09 14:03:00,80.8,10.9,30.09,North,0,0.0,0.0,7,0.00,CLR,OVC,0.00,WeatherDisplay:10.37,2013-10-09 19:03:00,
2013-10-09 14:08:00,80.6,10.8,30.09,North,0,0.0,0.0,7,0.00,CLR,OVC,0.00,WeatherDisplay:10.37,2013-10-09 19:08:00,
2013-10-09 14:13:00,80.6,10.8,30.09,North,0,0.0,0.0,7,0.00,CLR,OVC,0.00,WeatherDisplay:10.37,2013-10-09 19:13:00,
2013-10-09 14:18:00,80.6,10.8,30.09,North,0,0.0,0.0,7,0.00,CLR,OVC,0.00,WeatherDisplay:10.37,2013-10-09 19:18:00,
2013-10-09 14:23:00,80.8,10.9,30.09,North,0,0.0,0.0,7,0.00,CLR,OVC,0.00,WeatherDisplay:10.37,2013-10-09 19:23:00,
2013-10-09 14:28:00,80.8,10.9,30.09,North,0,0.0,0.0,7,0.00,CLR,OVC,0.00,WeatherDisplay:10.37,2013-10-09 19:28:00,
2013-10-09 14:33:00,80.6,10.8,30.09,North,0,0.0,0.0,7,0.00,CLR,OVC,0.00,WeatherDisplay:10.37,2013-10-09 19:33:00,
2013-10-09 14:38:00,80.4,10.6,30.09,North,0,0.0,0.0,7,0.00,CLR,OVC,0.00,WeatherDisplay:10.37,2013-10-09 19:38:00,
2013-10-09 14:43:00,80.4,10.6,30.09,North,0,0.0,0.0,7,0.00,CLR,OVC,0.00,WeatherDisplay:10.37,2013-10-09 19:43:00,
2013-10-09 14:48:00,80.4,10.6,30.09,North,0,0.0,0.0,7,0.00,CLR,OVC,0.00,WeatherDisplay:10.37,2013-10-09 19:48:00,
2013-10-09 14:53:00,80.4,10.6,30.09,North,0,0.0,0.0,7,0.00,CLR,OVC,0.00,WeatherDisplay:10.37,2013-10-09 19:53:00,
2013-10-09 14:58:00,80.4,10.6,30.09,North,0,0.0,0.0,7,0.00,CLR,OVC,0.00,WeatherDisplay:10.37,2013-10-09 19:58:00,
2013-10-09 15:03:00,80.4,10.6,30.09,North,0,0.0,0.0,7,0.00,CLR,OVC,0.00,WeatherDisplay:10.37,2013-10-09 20:03:00,
2013-10-09 15:08:00,79.9,10.2,30.09,North,0,0.0,0.0,7,0.00,CLR,OVC,0.00,WeatherDisplay:10.37,2013-10-09 20:08:00,
2013-10-09 15:13:00,78.4,12.2,30.09,North,0,0.0,0.0,8,0.00,CLR,OVC,0.00,WeatherDisplay:10.37,2013-10-09 20:13:00,
2013-10-09 15:18:00,77.2,11.3,30.09,North,0,0.0,0.0,8,0.00,CLR,OVC,0.00,WeatherDisplay:10.37,2013-10-09 20:18:00,
2013-10-09 15:23:00,76.1,10.4,30.09,North,0,0.0,0.0,8,0.00,CLR,OVC,0.00,WeatherDisplay:10.37,2013-10-09 20:23:00,
2013-10-09 15:28:00,75.6,10.0,30.09,North,0,0.0,0.0,8,0.00,CLR,OVC,0.00,WeatherDisplay:10.37,2013-10-09 20:28:00,
2013-10-09 15:33:00,75.0,9.6,30.09,North,0,0.0,0.0,8,0.00,CLR,OVC,0.00,WeatherDisplay:10.37,2013-10-09 20:33:00,
2013-10-09 15:38:00,74.7,9.4,30.09,North,0,0.0,0.0,8,0.00,CLR,OVC,0.00,WeatherDisplay:10.37,2013-10-09 20:38:00,
2013-10-09 15:43:00,74.1,9.0,30.09,North,0,0.0,0.0,8,0.00,CLR,OVC,0.00,WeatherDisplay:10.37,2013-10-09 20:43:00,
2013-10-09 15:48:00,73.8,8.7,30.09,North,0,0.0,0.0,8,0.00,CLR,OVC,0.00,WeatherDisplay:10.37,2013-10-09 20:48:00,
2013-10-09 15:53:00,73.4,8.4,30.09,North,0,0.0,0.0,8,0.00,CLR,OVC,0.00,WeatherDisplay:10.37,2013-10-09 20:53:00,
2013-10-09 15:58:00,73.0,10.8,30.09,North,0,0.0,0.0,9,0.00,CLR,OVC,0.00,WeatherDisplay:10.37,2013-10-09 20:58:00,
2013-10-09 16:03:00,72.9,10.7,30.09,North,0,0.0,0.0,9,0.00,CLR,OVC,0.00,WeatherDisplay:10.37,2013-10-09 21:03:00,
2013-10-09 16:08:00,72.9,10.7,30.09,North,0,0.0,0.0,9,0.00,CLR,OVC,0.00,WeatherDisplay:10.37,2013-10-09 21:08:00,
2013-10-09 16:13:00,72.7,10.5,30.09,North,0,0.0,0.0,9,0.00,CLR,OVC,0.00,WeatherDisplay:10.37,2013-10-09 21:13:00,
2013-10-09 16:18:00,72.9,10.7,30.09,North,0,0.0,0.0,9,0.00,CLR,OVC,0.00,WeatherDisplay:10.37,2013-10-09 21:18:00,
2013-10-09 16:23:00,73.4,8.4,30.09,North,0,0.0,0.0,8,0.00,CLR,OVC,0.00,WeatherDisplay:10.37,2013-10-09 21:23:00,
2013-10-09 16:28:00,73.8,8.7,30.09,North,0,0.0,0.0,8,0.00,CLR,OVC,0.00,WeatherDisplay:10.37,2013-10-09 21:28:00,
2013-10-09 16:33:00,73.8,8.7,30.09,North,0,0.0,0.0,8,0.00,CLR,OVC,0.00,WeatherDisplay:10.37,2013-10-09 21:33:00,
2013-10-09 17:02:00,72.7,10.5,30.09,North,0,0.0,0.0,9,0.00,CLR,OVC,0.00,WeatherDisplay:10.37,2013-10-09 22:02:00,
2013-10-09 17:07:00,72.3,10.3,30.09,North,0,0.0,0.0,9,0.00,CLR,OVC,0.00,WeatherDisplay:10.37,2013-10-09 22:07:00,
2013-10-09 17:13:00,71.8,9.8,30.09,North,0,0.0,0.0,9,0.00,CLR,OVC,0.00,WeatherDisplay:10.37,2013-10-09 22:13:00,
2013-10-09 17:18:00,71.2,9.4,30.06,North,0,0.0,0.0,9,0.00,CLR,OVC,0.00,WeatherDisplay:10.37,2013-10-09 22:18:00,
2013-10-09 17:23:00,70.9,9.2,30.06,North,0,0.0,0.0,9,0.00,CLR,OVC,0.00,WeatherDisplay:10.37,2013-10-09 22:23:00,
2013-10-09 17:28:00,70.3,8.8,30.06,North,0,0.0,0.0,9,0.00,CLR,OVC,0.00,WeatherDisplay:10.37,2013-10-09 22:28:00,
2013-10-09 17:33:00,70.0,8.5,30.06,North,0,0.0,0.0,9,0.00,CLR,OVC,0.00,WeatherDisplay:10.37,2013-10-09 22:33:00,
2013-10-09 17:38:00,69.4,10.4,30.06,North,0,0.0,0.0,10,0.00,CLR,OVC,0.00,WeatherDisplay:10.37,2013-10-09 22:38:00,
2013-10-09 17:43:00,69.1,10.1,30.06,North,0,0.0,0.0,10,0.00,CLR,OVC,0.00,WeatherDisplay:10.37,2013-10-09 22:43:00,
2013-10-09 17:48:00,68.7,9.9,30.06,North,0,0.0,0.0,10,0.00,CLR,OVC,0.00,WeatherDisplay:10.37,2013-10-09 22:48:00,
2013-10-09 17:53:00,68.2,9.5,30.06,North,0,0.0,0.0,10,0.00,CLR,OVC,0.00,WeatherDisplay:10.37,2013-10-09 22:53:00,
2013-10-09 17:58:00,67.8,9.2,30.06,North,0,0.0,0.0,10,0.00,CLR,OVC,0.00,WeatherDisplay:10.37,2013-10-09 22:58:00,
2013-10-09 18:03:00,67.5,8.9,30.09,North,0,0.0,0.0,10,0.00,CLR,OVC,0.00,WeatherDisplay:10.37,2013-10-09 23:03:00,
2013-10-09 18:08:00,66.9,8.5,30.09,North,0,0.0,0.0,10,0.00,CLR,OVC,0.00,WeatherDisplay:10.37,2013-10-09 23:08:00,
2013-10-09 18:13:00,66.4,8.1,30.09,North,0,0.0,0.0,10,0.00,CLR,OVC,0.00,WeatherDisplay:10.37,2013-10-09 23:13:00,
2013-10-09 18:18:00,66.0,7.8,30.06,North,0,0.0,0.0,10,0.00,CLR,OVC,0.00,WeatherDisplay:10.37,2013-10-09 23:18:00,
2013-10-09 18:23:00,65.7,7.5,30.06,North,0,0.0,0.0,10,0.00,CLR,OVC,0.00,WeatherDisplay:10.37,2013-10-09 23:23:00,
2013-10-09 18:28:00,65.1,7.1,30.06,North,0,0.0,0.0,10,0.00,CLR,OVC,0.00,WeatherDisplay:10.37,2013-10-09 23:28:00,
2013-10-09 18:33:00,64.4,6.6,30.09,North,0,0.0,0.0,10,0.00,CLR,OVC,0.00,WeatherDisplay:10.37,2013-10-09 23:33:00,
2013-10-09 18:38:00,63.9,8.2,30.09,North,0,0.0,0.0,11,0.00,CLR,OVC,0.00,WeatherDisplay:10.37,2013-10-09 23:38:00,
2013-10-09 18:43:00,63.5,8.0,30.09,North,0,0.0,0.0,11,0.00,CLR,OVC,0.00,WeatherDisplay:10.37,2013-10-09 23:43:00,
2013-10-09 18:48:00,63.0,7.5,30.09,North,0,0.0,0.0,11,0.00,CLR,OVC,0.00,WeatherDisplay:10.37,2013-10-09 23:48:00,
2013-10-09 18:53:00,62.4,7.1,30.09,North,0,0.0,0.0,11,0.00,CLR,OVC,0.00,WeatherDisplay:10.37,2013-10-09 23:53:00,
2013-10-09 18:58:00,62.1,6.8,30.09,North,0,0.0,0.0,11,0.00,CLR,OVC,0.00,WeatherDisplay:10.37,2013-10-09 23:58:00,
2013-10-09 19:03:00,61.5,6.4,30.09,North,0,0.0,0.0,11,0.00,CLR,OVC,0.00,WeatherDisplay:10.37,2013-10-10 00:03:00,
2013-10-09 19:08:00,61.2,6.1,30.09,North,0,0.0,0.0,11,0.00,CLR,OVC,0.00,WeatherDisplay:10.37,2013-10-10 00:08:00,
2013-10-09 19:13:00,60.6,7.6,30.09,North,0,0.0,0.0,12,0.00,CLR,OVC,0.00,WeatherDisplay:10.37,2013-10-10 00:13:00,
2013-10-09 19:18:00,60.4,7.5,30.09,North,0,0.0,0.0,12,0.00,CLR,OVC,0.00,WeatherDisplay:10.37,2013-10-10 00:18:00,
2013-10-09 19:23:00,60.1,7.2,30.09,North,0,0.0,0.0,12,0.00,CLR,OVC,0.00,WeatherDisplay:10.37,2013-10-10 00:23:00,
2013-10-09 19:28:00,59.7,6.9,30.09,North,0,0.0,0.0,12,0.00,CLR,OVC,0.00,WeatherDisplay:10.37,2013-10-10 00:28:00,
2013-10-09 19:33:00,59.5,6.8,30.06,North,0,0.0,0.0,12,0.00,CLR,OVC,0.00,WeatherDisplay:10.37,2013-10-10 00:33:00,
2013-10-09 19:38:00,59.4,6.6,30.06,North,0,0.0,0.0,12,0.00,CLR,OVC,0.00,WeatherDisplay:10.37,2013-10-10 00:38:00,
2013-10-09 19:43:00,59.2,6.5,30.06,North,0,0.0,0.0,12,0.00,CLR,OVC,0.00,WeatherDisplay:10.37,2013-10-10 00:43:00,
2013-10-09 19:48:00,59.2,6.5,30.09,North,0,0.0,0.0,12,0.00,CLR,OVC,0.00,WeatherDisplay:10.37,2013-10-10 00:48:00,
2013-10-09 19:53:00,59.2,6.5,30.09,North,0,0.0,0.0,12,0.00,CLR,OVC,0.00,WeatherDisplay:10.37,2013-10-10 00:53:00,
2013-10-09 19:58:00,59.2,6.5,30.09,North,0,0.0,0.0,12,0.00,CLR,OVC,0.00,WeatherDisplay:10.37,2013-10-10 00:58:00,
2013-10-09 20:03:00,59.0,6.4,30.06,North,0,0.0,0.0,12,0.00,CLR,OVC,0.00,WeatherDisplay:10.37,2013-10-10 01:03:00,
2013-10-09 20:08:00,58.8,6.2,30.06,North,0,0.0,0.0,12,0.00,CLR,OVC,0.00,WeatherDisplay:10.37,2013-10-10 01:08:00,
2013-10-09 20:13:00,58.6,6.1,30.06,North,0,0.0,0.0,12,0.00,CLR,OVC,0.00,WeatherDisplay:10.37,2013-10-10 01:13:00,
2013-10-09 20:18:00,58.5,5.9,30.06,North,0,0.0,0.0,12,0.00,CLR,OVC,0.00,WeatherDisplay:10.37,2013-10-10 01:18:00,
2013-10-09 20:23:00,58.3,5.8,30.06,North,0,0.0,0.0,12,0.00,CLR,OVC,0.00,WeatherDisplay:10.37,2013-10-10 01:23:00,
2013-10-09 20:29:00,58.1,5.7,30.06,North,0,0.0,0.0,12,0.00,CLR,OVC,0.00,WeatherDisplay:10.37,2013-10-10 01:29:00,
2013-10-09 20:34:00,58.1,5.7,30.09,North,0,0.0,0.0,12,0.00,CLR,OVC,0.00,WeatherDisplay:10.37,2013-10-10 01:34:00,
2013-10-09 20:39:00,57.9,5.5,30.09,North,0,0.0,0.0,12,0.00,CLR,OVC,0.00,WeatherDisplay:10.37,2013-10-10 01:39:00,
2013-10-09 20:44:00,57.7,5.4,30.09,North,0,0.0,0.0,12,0.00,CLR,OVC,0.00,WeatherDisplay:10.37,2013-10-10 01:44:00,
2013-10-09 20:49:00,57.6,5.2,30.09,North,0,0.0,0.0,12,0.00,CLR,OVC,0.00,WeatherDisplay:10.37,2013-10-10 01:49:00,
2013-10-09 20:54:00,57.4,8.5,30.09,North,0,0.0,0.0,14,0.00,CLR,OVC,0.00,WeatherDisplay:10.37,2013-10-10 01:54:00,
2013-10-09 20:59:00,57.2,8.3,30.09,North,0,0.0,0.0,14,0.00,CLR,OVC,0.00,WeatherDisplay:10.37,2013-10-10 01:59:00,
2013-10-09 21:04:00,57.0,9.7,30.09,North,0,0.0,0.0,15,0.00,CLR,OVC,0.00,WeatherDisplay:10.37,2013-10-10 02:04:00,
2013-10-09 21:09:00,56.8,9.6,30.09,North,0,0.0,0.0,15,0.00,CLR,OVC,0.00,WeatherDisplay:10.37,2013-10-10 02:09:00,
2013-10-09 21:14:00,56.7,9.5,30.09,North,0,0.0,0.0,15,0.00,CLR,OVC,0.00,WeatherDisplay:10.37,2013-10-10 02:14:00,
2013-10-09 21:19:00,56.5,9.3,30.09,North,0,0.0,0.0,15,0.00,CLR,OVC,0.00,WeatherDisplay:10.37,2013-10-10 02:19:00,
2013-10-09 21:24:00,56.3,9.2,30.09,North,0,0.0,0.0,15,0.00,CLR,OVC,0.00,WeatherDisplay:10.37,2013-10-10 02:24:00,
2013-10-09 21:29:00,56.1,9.0,30.09,North,0,0.0,0.0,15,0.00,CLR,OVC,0.00,WeatherDisplay:10.37,2013-10-10 02:29:00,
2013-10-09 21:34:00,55.9,11.7,30.09,North,0,0.0,0.0,17,0.00,CLR,OVC,0.00,WeatherDisplay:10.37,2013-10-10 02:34:00,
2013-10-09 21:39:00,55.8,11.5,30.09,North,0,0.0,0.0,17,0.00,CLR,OVC,0.00,WeatherDisplay:10.37,2013-10-10 02:39:00,
2013-10-09 21:44:00,55.6,11.4,30.09,North,0,0.0,0.0,17,0.00,CLR,OVC,0.00,WeatherDisplay:10.37,2013-10-10 02:44:00,
2013-10-09 21:49:00,55.6,11.4,30.09,North,0,0.0,0.0,17,0.00,CLR,OVC,0.00,WeatherDisplay:10.37,2013-10-10 02:49:00,
2013-10-09 21:54:00,55.2,12.4,30.09,North,0,0.0,0.0,18,0.00,CLR,OVC,0.00,WeatherDisplay:10.37,2013-10-10 02:54:00,
2013-10-09 21:59:00,55.0,12.2,30.09,North,0,0.0,0.0,18,0.00,CLR,OVC,0.00,WeatherDisplay:10.37,2013-10-10 02:59:00,
2013-10-09 22:04:00,54.9,14.5,30.09,North,0,0.0,0.0,20,0.00,CLR,OVC,0.00,WeatherDisplay:10.37,2013-10-10 03:04:00,
2013-10-09 22:09:00,54.5,14.2,30.09,North,0,0.0,0.0,20,0.00,CLR,OVC,0.00,WeatherDisplay:10.37,2013-10-10 03:09:00,
2013-10-09 22:14:00,54.3,17.3,30.09,North,0,0.0,0.0,23,0.00,CLR,OVC,0.00,WeatherDisplay:10.37,2013-10-10 03:14:00,
2013-10-09 22:19:00,54.1,17.1,30.09,North,0,0.0,0.0,23,0.00,CLR,OVC,0.00,WeatherDisplay:10.37,2013-10-10 03:19:00,
2013-10-09 22:24:00,53.8,18.7,30.09,North,0,0.0,0.0,25,0.00,CLR,OVC,0.00,WeatherDisplay:10.37,2013-10-10 03:24:00,
2013-10-09 22:29:00,53.6,18.6,30.09,North,0,0.0,0.0,25,0.00,CLR,OVC,0.00,WeatherDisplay:10.37,2013-10-10 03:29:00,
2013-10-09 22:34:00,53.4,19.3,30.09,North,0,0.0,0.0,26,0.00,CLR,OVC,0.00,WeatherDisplay:10.37,2013-10-10 03:34:00,
2013-10-09 22:39:00,53.1,19.0,30.09,North,0,0.0,0.0,26,0.00,CLR,OVC,0.00,WeatherDisplay:10.37,2013-10-10 03:39:00,
2013-10-09 22:44:00,52.9,18.9,30.09,North,0,0.0,0.0,26,0.00,CLR,OVC,0.00,WeatherDisplay:10.37,2013-10-10 03:44:00,
2013-10-09 22:49:00,52.7,19.6,30.09,North,0,0.0,0.0,27,0.00,CLR,OVC,0.00,WeatherDisplay:10.37,2013-10-10 03:49:00,
2013-10-09 22:54:00,52.5,19.5,30.09,North,0,0.0,0.0,27,0.00,CLR,OVC,0.00,WeatherDisplay:10.37,2013-10-10 03:54:00,
2013-10-09 22:59:00,52.3,19.3,30.09,North,0,0.0,0.0,27,0.00,CLR,OVC,0.00,WeatherDisplay:10.37,2013-10-10 03:59:00,
2013-10-09 23:01:00,52.3,19.3,30.09,North,0,0.0,0.0,27,0.00,CLR,OVC,0.00,WeatherDisplay:10.37,2013-10-10 04:01:00,
2013-10-09 23:02:00,52.3,19.3,30.09,North,0,0.0,0.0,27,0.00,CLR,OVC,0.00,WeatherDisplay:10.37,2013-10-10 04:02:00,
2013-10-09 23:03:00,52.3,19.3,30.09,North,0,0.0,0.0,27,0.00,CLR,OVC,0.00,WeatherDisplay:10.37,2013-10-10 04:03:00,
2013-10-09 23:06:00,52.2,19.1,30.09,North,0,0.0,0.0,27,0.00,CLR,OVC,0.00,WeatherDisplay:10.37,2013-10-10 04:06:00,
2013-10-09 23:12:00,52.2,19.1,30.09,North,0,0.0,0.0,27,0.00,CLR,OVC,0.00,WeatherDisplay:10.37,2013-10-10 04:12:00,
2013-10-09 23:17:00,52.0,19.8,30.06,North,0,0.0,0.0,28,0.00,CLR,OVC,0.00,WeatherDisplay:10.37,2013-10-10 04:17:00,
2013-10-09 23:22:00,52.0,19.8,30.06,North,0,0.0,0.0,28,0.00,CLR,OVC,0.00,WeatherDisplay:10.37,2013-10-10 04:22:00,
2013-10-09 23:27:00,51.8,19.7,30.06,North,0,0.0,0.0,28,0.00,CLR,OVC,0.00,WeatherDisplay:10.37,2013-10-10 04:27:00,
2013-10-09 23:32:00,51.8,19.7,30.09,North,0,0.0,0.0,28,0.00,CLR,OVC,0.00,WeatherDisplay:10.37,2013-10-10 04:32:00,
2013-10-09 23:37:00,51.8,19.7,30.09,North,0,0.0,0.0,28,0.00,CLR,OVC,0.00,WeatherDisplay:10.37,2013-10-10 04:37:00,
2013-10-09 23:42:00,51.6,20.4,30.09,North,0,0.0,0.0,29,0.00,CLR,OVC,0.00,WeatherDisplay:10.37,2013-10-10 04:42:00,
2013-10-09 23:47:00,51.6,20.4,30.09,North,0,0.0,0.0,29,0.00,CLR,OVC,0.00,WeatherDisplay:10.37,2013-10-10 04:47:00,
2013-10-09 23:52:00,51.6,20.4,30.09,North,0,0.0,0.0,29,0.00,CLR,OVC,0.00,WeatherDisplay:10.37,2013-10-10 04:52:00,
2013-10-09 23:57:00,51.6,20.4,30.09,North,0,0.0,0.0,29,0.00,CLR,OVC,0.00,WeatherDisplay:10.37,2013-10-10 04:57:00,